EGHH

Bournemouth Airport

Airport
ICAO code
EGHH
IATA Code
BOH
Summary
ICAO Region
EUR
ICAO Territory
Location

Hurn, Dorset, England

Serving
Bournemouth
Elevation
38 ft
Coordinates
50° 46' 48" N , 1° 50' 33" W
KCC
Metar
EGHH 222250Z 25008KT CAVOK 05/03 Q0988

Description

A small international airport serving the area around the city of Bournemouth.

Climatology

Temperate Marine climate/Oceanic climate (Köppen climate classification Cfb). Moderately cool summer and comparatively warm winter with a mean temperature range of only 14°C. Prevailing south-westerly winds.

Runways

Designator Length Width Surface Rops
8/26 2271 46 ASP Yes/Yes

SKYbrary Partners:

Safety knowledge contributed by: